| time (UTC) | temp F | wind direction | speed MPH | gust MPH | rain 1hr in | rain 24hr in | rain mn in | humidity % | barometer mb |
| 20260903050455 | 54 | 190 | 0.0 | 0.0 | 0.00 | 0.00 | 0.00 | ||
| 20260903045458 | 53 | 152 | 0.0 | 0.0 | 0.00 | 0.00 | 0.00 | ||
| 20260903044956 | 53 | 152 | 0.0 | 0.0 | 0.00 | 0.00 | 0.00 | ||
| 20260903043959 | 55 | 176 | 0.0 | 0.0 | 0.00 | 0.00 | 0.00 | ||
| 20260903042500 | 55 | 176 | 0.0 | 0.0 | 0.00 | 0.00 | 0.00 | ||
| 20260903042001 | 55 | 176 | 0.0 | 0.0 | 0.00 | 0.00 | 0.00 | ||
| 20260903041502 | 55 | 176 | 0.0 | 0.0 | 0.00 | 0.00 | 0.00 | ||
| 20260903040505 | 56 | 176 | 0.0 | 0.0 | 0.00 | 0.00 | 0.00 | ||
| 20260903040003 | 56 | 176 | 0.0 | 0.0 | 0.00 | 0.00 | 0.00 | ||
| 20260903035504 | 56 | 176 | 0.0 | 0.0 | 0.00 | 0.00 | 0.00 | ||
| 20260903035005 | 55 | 176 | 0.0 | 0.0 | 0.00 | 0.00 | 0.00 | ||
| 20260903034507 | 55 | 176 | 0.0 | 0.0 | 0.00 | 0.00 | 0.00 | ||
| 20260903034008 | 53 | 176 | 1.0 | 0.0 | 0.00 | 0.00 | 0.00 | ||
| 20260903033008 | 53 | 215 | 2.0 | 2.0 | 0.00 | 0.00 | 0.00 | ||
| 20260903032011 | 54 | 232 | 3.0 | 3.0 | 0.00 | 0.00 | 0.00 | ||
| 20260903031513 | 55 | 195 | 4.0 | 4.0 | 0.00 | 0.00 | 0.00 | ||
| 20260903031011 | 55 | 228 | 0.0 | 0.0 | 0.00 | 0.00 | 0.00 | ||
| 20260903030513 | 56 | 228 | 0.0 | 0.0 | 0.00 | 0.00 | 0.00 | ||
| 20260903030014 | 56 | 228 | 0.0 | 0.0 | 0.00 | 0.00 | 0.00 | ||
| 20260903025515 | 56 | 228 | 0.0 | 0.0 | 0.00 | 0.00 | 0.00 | ||
| 20260903025017 | 56 | 228 | 0.0 | 0.0 | 0.00 | 0.00 | 0.00 | ||
| 20260903024017 | 55 | 228 | 0.0 | 0.0 | 0.00 | 0.00 | 0.00 | ||
| 20260903023518 | 55 | 228 | 0.0 | 0.0 | 0.00 | 0.00 | 0.00 | ||
| 20260903022521 | 56 | 228 | 0.0 | 0.0 | 0.00 | 0.00 | 0.00 | ||
| 20260903020524 | 58 | 200 | 2.0 | 1.0 | 0.00 | 0.00 | 0.00 | ||
| 20260903020025 | 57 | 188 | 1.0 | 2.0 | 0.00 | 0.00 | 0.00 | ||
| 20260903015523 | 57 | 173 | 1.0 | 1.0 | 0.00 | 0.00 | 0.00 | ||
| 20260903015024 | 55 | 200 | 3.0 | 3.0 | 0.00 | 0.00 | 0.00 | ||
| 20260903014027 | 57 | 114 | 2.0 | 0.0 | 0.00 | 0.00 | 0.00 | ||
| 20260903013528 | 58 | 159 | 1.0 | 2.0 | 0.00 | 0.00 | 0.00 | ||
| 20260903013026 | 58 | 167 | 2.0 | 1.0 | 0.00 | 0.00 | 0.00 | ||
| 20260903012527 | 59 | 190 | 2.0 | 3.0 | 0.00 | 0.00 | 0.00 | ||
| 20260903012028 | 59 | 156 | 0.0 | 1.0 | 0.00 | 0.00 | 0.00 | ||
| 20260903011529 | 59 | 156 | 0.0 | 0.0 | 0.00 | 0.00 | 0.00 | ||
| 20260903011031 | 60 | 156 | 0.0 | 0.0 | 0.00 | 0.00 | 0.00 | ||
| 20260903010529 | 59 | 160 | 1.0 | 1.0 | 0.00 | 0.00 | 0.00 | ||
| 20260903010030 | 59 | 205 | 2.0 | 2.0 | 0.00 | 0.00 | 0.00 | ||
| 20260903005033 | 59 | 203 | 2.0 | 2.0 | 0.00 | 0.00 | 0.00 | ||
| 20260903004534 | 59 | 200 | 2.0 | 2.0 | 0.00 | 0.00 | 0.00 | ||
| 20260903003534 | 58 | 201 | 2.0 | 1.0 | 0.00 | 0.00 | 0.00 | ||
| 20260903003035 | 59 | 212 | 3.0 | 3.0 | 0.00 | 0.00 | 0.00 | ||
| 20260903001536 | 59 | 219 | 3.0 | 3.0 | 0.00 | 0.00 | 0.00 | ||
| 20260903000040 | 59 | 221 | 2.0 | 3.0 | 0.00 | 0.00 | 0.00 | ||
| 20260902235542 | 59 | 198 | 2.0 | 2.0 | 0.00 | 0.00 | 0.00 | ||
| 20260902235040 | 60 | 218 | 2.0 | 3.0 | 0.00 | 0.00 | 0.00 | ||
| 20260902234542 | 60 | 195 | 2.0 | 2.0 | 0.00 | 0.00 | 0.00 | ||
| 20260902234043 | 61 | 177 | 2.0 | 2.0 | 0.00 | 0.00 | 0.00 | ||
| 20260902233545 | 61 | 191 | 2.0 | 1.0 | 0.00 | 0.00 | 0.00 | ||
| 20260902233046 | 62 | 197 | 1.0 | 2.0 | 0.00 | 0.00 | 0.00 | ||
| 20260902232545 | 62 | 201 | 1.0 | 2.0 | 0.00 | 0.00 | 0.00 | ||
| 20260902232046 | 61 | 224 | 1.0 | 1.0 | 0.00 | 0.00 | 0.00 | ||
| 20260902231547 | 62 | 229 | 3.0 | 2.0 | 0.00 | 0.00 | 0.00 | ||
| 20260902225051 | 62 | 195 | 3.0 | 2.0 | 0.00 | 0.00 | 0.00 | ||
| 20260902224553 | 62 | 239 | 2.0 | 2.0 | 0.00 | 0.00 | 0.00 | ||
| 20260902224054 | 62 | 233 | 2.0 | 3.0 | 0.00 | 0.00 | 0.00 | ||
| 20260902223054 | 63 | 225 | 2.0 | 2.0 | 0.00 | 0.00 | 0.00 | ||
| 20260902222555 | 63 | 238 | 1.0 | 1.0 | 0.00 | 0.00 | 0.00 | ||
| 20260902222057 | 63 | 252 | 2.0 | 1.0 | 0.00 | 0.00 | 0.00 | ||
| 20260902221558 | 64 | 257 | 2.0 | 2.0 | 0.00 | 0.00 | 0.00 | ||
| 20260902221056 | 63 | 222 | 2.0 | 2.0 | 0.00 | 0.00 | 0.00 | ||
| 20260902220558 | 63 | 236 | 2.0 | 2.0 | 0.00 | 0.00 | 0.00 | ||
| 20260902215601 | 65 | 173 | 1.0 | 1.0 | 0.00 | 0.00 | 0.00 | ||
| 20260902215102 | 65 | 115 | 0.0 | 1.0 | 0.00 | 0.00 | 0.00 | ||
| 20260902214600 | 64 | 195 | 1.0 | 1.0 | 0.00 | 0.00 | 0.00 | ||
| 20260902214101 | 64 | 200 | 2.0 | 2.0 | 0.00 | 0.00 | 0.00 | ||
| 20260902213104 | 64 | 200 | 0.0 | 0.0 | 0.00 | 0.00 | 0.00 | ||
| 20260902212605 | 65 | 200 | 0.0 | 0.0 | 0.00 | 0.00 | 0.00 | ||
| 20260902212103 | 65 | 200 | 0.0 | 0.0 | 0.00 | 0.00 | 0.00 | ||
| 20260902211605 | 65 | 200 | 0.0 | 0.0 | 0.00 | 0.00 | 0.00 | ||
| 20260902211106 | 65 | 200 | 0.0 | 0.0 | 0.00 | 0.00 | 0.00 | ||
| 20260902210607 | 65 | 200 | 0.0 | 0.0 | 0.00 | 0.00 | 0.00 | ||
| 20260902210109 | 64 | 197 | 2.0 | 1.0 | 0.00 | 0.00 | 0.00 | ||
| 20260902205606 | 64 | 217 | 0.0 | 2.0 | 0.00 | 0.00 | 0.00 | ||
| 20260902205107 | 65 | 163 | 0.0 | 0.0 | 0.00 | 0.00 | 0.00 | ||
| 20260902204609 | 66 | 146 | 0.0 | 0.0 | 0.00 | 0.00 | 0.00 | ||
| 20260902203611 | 63 | 219 | 2.0 | 3.0 | 0.00 | 0.00 | 0.00 | ||
| 20260902203109 | 64 | 236 | 2.0 | 1.0 | 0.00 | 0.00 | 0.00 | ||
| 20260902202112 | 66 | 277 | 0.0 | 0.0 | 0.00 | 0.00 | 0.00 | ||
| 20260902201613 | 67 | 277 | 0.0 | 0.0 | 0.00 | 0.00 | 0.00 | ||
| 20260902201114 | 67 | 277 | 0.0 | 0.0 | 0.00 | 0.00 | 0.00 | ||
| 20260902200613 | 67 | 277 | 0.0 | 0.0 | 0.00 | 0.00 | 0.00 | ||
| 20260902200114 | 67 | 277 | 0.0 | 0.0 | 0.00 | 0.00 | 0.00 | ||
| 20260902195615 | 67 | 277 | 0.0 | 0.0 | 0.00 | 0.00 | 0.00 | ||
| 20260902195116 | 67 | 277 | 0.0 | 0.0 | 0.00 | 0.00 | 0.00 | ||
| 20260902194618 | 67 | 277 | 0.0 | 0.0 | 0.00 | 0.00 | 0.00 | ||
| 20260902194115 | 65 | 250 | 1.0 | 1.0 | 0.00 | 0.00 | 0.00 | ||
| 20260902193616 | 66 | 285 | 2.0 | 1.0 | 0.00 | 0.00 | 0.00 | ||
| 20260902192619 | 66 | 288 | 3.0 | 3.0 | 0.00 | 0.00 | 0.00 | ||
| 20260902192120 | 65 | 280 | 3.0 | 3.0 | 0.00 | 0.00 | 0.00 | ||
| 20260902191618 | 65 | 288 | 3.0 | 3.0 | 0.00 | 0.00 | 0.00 | ||
| 20260902191119 | 66 | 291 | 2.0 | 2.0 | 0.00 | 0.00 | 0.00 | ||
| 20260902190620 | 65 | 290 | 2.0 | 2.0 | 0.00 | 0.00 | 0.00 | ||
| 20260902190122 | 66 | 290 | 3.0 | 3.0 | 0.00 | 0.00 | 0.00 | ||
| 20260902185623 | 66 | 295 | 2.0 | 3.0 | 0.00 | 0.00 | 0.00 | ||
| 20260902185121 | 66 | 288 | 2.0 | 2.0 | 0.00 | 0.00 | 0.00 | ||
| 20260902184622 | 67 | 273 | 3.0 | 3.0 | 0.00 | 0.00 | 0.00 | ||
| 20260902184123 | 67 | 262 | 2.0 | 2.0 | 0.00 | 0.00 | 0.00 | ||
| 20260902183624 | 66 | 290 | 2.0 | 2.0 | 0.00 | 0.00 | 0.00 | ||
| 20260902182126 | 67 | 290 | 3.0 | 3.0 | 0.00 | 0.00 | 0.00 | ||
| 20260902181627 | 67 | 290 | 2.0 | 3.0 | 0.00 | 0.00 | 0.00 | ||
| 20260902181128 | 68 | 305 | 3.0 | 2.0 | 0.00 | 0.00 | 0.00 | ||
| 20260902180128 | 69 | 329 | 3.0 | 4.0 | 0.00 | 0.00 | 0.00 | ||
| 20260902175629 | 69 | 318 | 4.0 | 4.0 | 0.00 | 0.00 | 0.00 | ||
| 20260902175131 | 68 | 332 | 5.0 | 4.0 | 0.00 | 0.00 | 0.00 | ||
| 20260902174632 | 70 | 318 | 6.0 | 7.0 | 0.00 | 0.00 | 0.00 | ||
| 20260902174133 | 71 | 312 | 4.0 | 4.0 | 0.00 | 0.00 | 0.00 | ||
| 20260902173631 | 71 | 307 | 7.0 | 7.0 | 0.00 | 0.00 | 0.00 | ||
| 20260902173132 | 70 | 311 | 3.0 | 6.0 | 0.00 | 0.00 | 0.00 | ||
| 20260902172633 | 71 | 321 | 6.0 | 4.0 | 0.00 | 0.00 | 0.00 | ||
| 20260902171635 | 72 | 323 | 5.0 | 7.0 | 0.00 | 0.00 | 0.00 | ||
| 20260902171133 | 72 | 297 | 4.0 | 6.0 | 0.00 | 0.00 | 0.00 | ||
| 20260902170634 | 73 | 297 | 7.0 | 8.0 | 0.00 | 0.00 | 0.00 | ||
| 20260902170135 | 73 | 301 | 5.0 | 6.0 | 0.00 | 0.00 | 0.00 | ||
| 20260902165637 | 73 | 311 | 6.0 | 7.0 | 0.00 | 0.00 | 0.00 | ||
| 20260902164636 | 73 | 278 | 4.0 | 6.0 | 0.00 | 0.00 | 0.00 | ||
| 20260902164137 | 73 | 246 | 8.0 | 6.0 | 0.00 | 0.00 | 0.00 | ||
| 20260902163639 | 74 | 297 | 6.0 | 6.0 | 0.00 | 0.00 | 0.00 | ||
| 20260902163140 | 73 | 259 | 8.0 | 7.0 | 0.00 | 0.00 | 0.00 | ||
| 20260902162139 | 74 | 280 | 10.0 | 9.0 | 0.00 | 0.00 | 0.00 | ||
| 20260902161641 | 74 | 260 | 8.0 | 7.0 | 0.00 | 0.00 | 0.00 | ||
| 20260902161142 | 74 | 271 | 8.0 | 8.0 | 0.00 | 0.00 | 0.00 | ||
| 20260902160643 | 74 | 260 | 7.0 | 9.0 | 0.00 | 0.00 | 0.00 | ||
| 20260902155643 | 75 | 318 | 5.0 | 4.0 | 0.00 | 0.00 | 0.00 | ||
| 20260902155144 | 75 | 277 | 9.0 | 7.0 | 0.00 | 0.00 | 0.00 | ||
| 20260902154645 | 75 | 307 | 10.0 | 8.0 | 0.00 | 0.00 | 0.00 | ||
| 20260902154146 | 75 | 257 | 9.0 | 9.0 | 0.00 | 0.00 | 0.00 | ||
| 20260902153145 | 77 | 239 | 8.0 | 12.0 | 0.00 | 0.00 | 0.00 | ||
| 20260902151648 | 77 | 218 | 5.0 | 3.0 | 0.00 | 0.00 | 0.00 | ||
| 20260902150646 | 76 | 240 | 2.0 | 2.0 | 0.00 | 0.00 | 0.00 | ||
| 20260902150147 | 77 | 253 | 3.0 | 4.0 | 0.00 | 0.00 | 0.00 | ||
| 20260902145648 | 78 | 264 | 2.0 | 5.0 | 0.00 | 0.00 | 0.00 | ||
| 20260902143650 | 76 | 297 | 6.0 | 4.0 | 0.00 | 0.00 | 0.00 | ||
| 20260902141650 | 78 | 212 | 7.0 | 7.0 | 0.00 | 0.00 | 0.00 | ||
| 20260902135653 | 76 | 242 | 6.0 | 5.0 | 0.00 | 0.00 | 0.00 | ||
| 20260902134652 | 77 | 300 | 6.0 | 4.0 | 0.00 | 0.00 | 0.00 | ||
| 20260902133653 | 77 | 257 | 6.0 | 3.0 | 0.00 | 0.00 | 0.00 | ||
| 20260902133154 | 77 | 255 | 4.0 | 7.0 | 0.00 | 0.00 | 0.00 | ||
| 20260902132154 | 81 | 152 | 5.0 | 3.0 | 0.00 | 0.00 | 0.00 | ||
| 20260902131654 | 79 | 153 | 5.0 | 7.0 | 0.00 | 0.00 | 0.00 | ||
| 20260902130656 | 79 | 242 | 6.0 | 3.0 | 0.00 | 0.00 | 0.00 | ||
| 20260902125153 | 78 | 243 | 4.0 | 9.0 | 0.00 | 0.00 | 0.00 | ||
| 20260902124654 | 75 | 203 | 7.0 | 7.0 | 0.00 | 0.00 | 0.00 | ||
| 20260902123652 | 76 | 269 | 7.0 | 8.0 | 0.00 | 0.00 | 0.00 | ||
| 20260902122654 | 75 | 229 | 4.0 | 8.0 | 0.00 | 0.00 | 0.00 | ||
| 20260902122156 | 75 | 217 | 4.0 | 5.0 | 0.00 | 0.00 | 0.00 | ||
| 20260902115200 | 75 | 255 | 3.0 | 5.0 | 0.00 | 0.00 | 0.00 | ||
| 20260902114658 | 75 | 184 | 5.0 | 4.0 | 0.00 | 0.00 | 0.00 | ||
| 20260902114159 | 77 | 222 | 6.0 | 6.0 | 0.00 | 0.00 | 0.00 | ||
| 20260902113700 | 74 | 218 | 5.0 | 5.0 | 0.00 | 0.00 | 0.00 | ||
| 20260902112703 | 74 | 224 | 4.0 | 3.0 | 0.00 | 0.00 | 0.00 | ||
| 20260902112201 | 74 | 218 | 3.0 | 3.0 | 0.00 | 0.00 | 0.00 | ||
| 20260902111703 | 75 | 215 | 4.0 | 3.0 | 0.00 | 0.00 | 0.00 | ||
| 20260902111204 | 74 | 259 | 3.0 | 5.0 | 0.00 | 0.00 | 0.00 | ||
| 20260902110705 | 77 | 215 | 3.0 | 4.0 | 0.00 | 0.00 | 0.00 | ||
| 20260902110207 | 76 | 194 | 5.0 | 2.0 | 0.00 | 0.00 | 0.00 | ||
| 20260902105705 | 77 | 177 | 7.0 | 5.0 | 0.00 | 0.00 | 0.00 | ||
| 20260902105206 | 77 | 173 | 3.0 | 5.0 | 0.00 | 0.00 | 0.00 | ||
| 20260902104208 | 76 | 242 | 3.0 | 1.0 | 0.00 | 0.00 | 0.00 | ||
| 20260902103709 | 74 | 214 | 6.0 | 4.0 | 0.00 | 0.00 | 0.00 | ||
| 20260902103207 | 74 | 221 | 6.0 | 7.0 | 0.00 | 0.00 | 0.00 | ||
| 20260902101213 | 74 | 180 | 0.0 | 2.0 | 0.00 | 0.00 | 0.00 | ||
| 20260902100710 | 74 | 96 | 1.0 | 1.0 | 0.00 | 0.00 | 0.00 | ||
| 20260902095214 | 71 | 323 | 2.0 | 1.0 | 0.00 | 0.00 | 0.00 | ||
| 20260902094715 | 71 | 184 | 0.0 | 0.0 | 0.00 | 0.00 | 0.00 | ||
| 20260902094213 | 69 | 252 | 2.0 | 0.0 | 0.00 | 0.00 | 0.00 | ||
| 20260902093714 | 69 | 290 | 0.0 | 0.0 | 0.00 | 0.00 | 0.00 | ||
| 20260902093213 | 70 | 283 | 2.0 | 1.0 | 0.00 | 0.00 | 0.00 | ||
| 20260902092714 | 70 | 270 | 1.0 | 1.0 | 0.00 | 0.00 | 0.00 | ||
| 20260902092215 | 69 | 266 | 3.0 | 3.0 | 0.00 | 0.00 | 0.00 | ||
| 20260902091713 | 71 | 132 | 0.0 | 0.0 | 0.00 | 0.00 | 0.00 | ||
| 20260902091214 | 72 | 132 | 0.0 | 0.0 | 0.00 | 0.00 | 0.00 | ||
| 20260902090714 | 71 | 90 | 0.0 | 1.0 | 0.00 | 0.00 | 0.00 | ||
| 20260902090214 | 71 | 121 | 2.0 | 2.0 | 0.00 | 0.00 | 0.00 | ||
| 20260902085715 | 71 | 128 | 3.0 | 2.0 | 0.00 | 0.00 | 0.00 | ||
| 20260902085213 | 70 | 110 | 2.0 | 2.0 | 0.00 | 0.00 | 0.00 | ||
| 20260902084215 | 70 | 127 | 3.0 | 2.0 | 0.00 | 0.00 | 0.00 | ||
| 20260902083716 | 70 | 187 | 0.0 | 0.0 | 0.00 | 0.00 | 0.00 | ||
| 20260902083216 | 69 | 111 | 3.0 | 3.0 | 0.00 | 0.00 | 0.00 | ||
| 20260902082714 | 68 | 139 | 2.0 | 3.0 | 0.00 | 0.00 | 0.00 | ||
| 20260902082213 | 68 | 134 | 3.0 | 3.0 | 0.00 | 0.00 | 0.00 | ||
| 20260902081714 | 68 | 153 | 1.0 | 1.0 | 0.00 | 0.00 | 0.00 | ||
| 20260902081214 | 68 | 143 | 2.0 | 2.0 | 0.00 | 0.00 | 0.00 | ||
| 20260902080716 | 67 | 115 | 1.0 | 1.0 | 0.00 | 0.00 | 0.00 | ||
| 20260902080214 | 67 | 131 | 2.0 | 2.0 | 0.00 | 0.00 | 0.00 | ||
| 20260902075714 | 67 | 121 | 3.0 | 3.0 | 0.00 | 0.00 | 0.00 | ||
| 20260902074713 | 67 | 125 | 2.0 | 1.0 | 0.00 | 0.00 | 0.00 | ||
| 20260902074215 | 64 | 117 | 1.0 | 1.0 | 0.00 | 0.00 | 0.00 | ||
| 20260902073713 | 64 | 15 | 0.0 | 0.0 | 0.00 | 0.00 | 0.00 | ||
| 20260902073213 | 63 | 15 | 0.0 | 0.0 | 0.00 | 0.00 | 0.00 | ||
| 20260902072214 | 63 | 228 | 0.0 | 0.0 | 0.00 | 0.00 | 0.00 | ||
| 20260902071716 | 63 | 228 | 0.0 | 0.0 | 0.00 | 0.00 | 0.00 | ||
| 20260902071215 | 62 | 228 | 0.0 | 0.0 | 0.00 | 0.00 | 0.00 | ||
| 20260902070716 | 61 | 283 | 1.0 | 1.0 | 0.00 | 0.00 | 0.00 | ||
| 20260902070218 | 61 | 97 | 0.0 | 0.0 | 0.00 | 0.00 | 0.00 | ||
| 20260902065716 | 61 | 97 | 0.0 | 0.0 | 0.00 | 0.00 | 0.00 | ||
| 20260902065218 | 61 | 135 | 1.0 | 1.0 | 0.00 | 0.00 | 0.00 | ||
| 20260902064716 | 62 | 152 | 2.0 | 1.0 | 0.00 | 0.00 | 0.00 | ||
| 20260902064217 | 62 | 103 | 1.0 | 0.0 | 0.00 | 0.00 | 0.00 | ||
| 20260902063719 | 60 | 165 | 2.0 | 2.0 | 0.00 | 0.00 | 0.00 | ||
| 20260902063220 | 59 | 159 | 0.0 | 0.0 | 0.00 | 0.00 | 0.00 | ||
| 20260902062923 | 60 | 148 | 0.0 | 1.0 | 0.00 | 0.00 | 0.00 | ||
| 20260902062721 | 60 | 148 | 0.0 | 1.0 | 0.00 | 0.00 | 0.00 | ||
| 20260902062219 | 59 | 200 | 1.0 | 1.0 | 0.00 | 0.00 | 0.00 | ||
| 20260902061721 | 59 | 152 | 1.0 | 0.0 | 0.00 | 0.00 | 0.00 | ||
| 20260902061222 | 60 | 135 | 0.0 | 0.0 | 0.00 | 0.00 | 0.00 | ||
| 20260902055226 | 57 | 135 | 0.0 | 0.0 | 0.00 | 0.00 | 0.00 | ||
| 20260902054727 | 56 | 135 | 0.0 | 0.0 | 0.00 | 0.00 | 0.00 | ||
| 20260902054229 | 56 | 135 | 0.0 | 0.0 | 0.00 | 0.00 | 0.00 |